COSMOS 1344

Satellite information

Favourite Embed

Satellite Type and Status

PAYLOADIN ORBIT

Key statistics

Satellite COSMOS 1344 at a glance.

Uptime

15811

Days in orbit

Revolutions

≈ 13.7

Per day

Orbit

LEO

Low Earth Orbit

Inclination

82.9

Latest

Satellite identification and parameters

Extended collection of information and parameters for COSMOS 1344.

Object identification

Identified? True

Debris? False

Object name: COSMOS 1344

International designator: 1982-024A

Object number (NORAD): 13110

Object ID (CCSDS): 13110

Country: COMMONWEALTH OF INDEPENDENT STATES (CIS)

Current information (Y/N): Y

RCS size: LARGE

Orbital parameters

Period: 104.788 minutes

Inclination: 82.9235 deg

SMA: 7362.673 km

Apoapsis: 1004.816 km

Periapsis: 964.261 km

RAAN: 314.6561 deg

Eccentricy: 0.0027541

Argument of periapsis: 225.2936 deg

Mean anomaly: 254.0848 deg

Mean motion: 13.74198481 rev/day

Mean motion (dot): 0.00000036 rev/day2

B* drag term: 0.000022562 1/REarth

Two-line elements (TLE)

Creation date: July 6, 2025, 10:26 p.m.

Reference frame: TEME

Reference center: EARTH

Epoch: July 6, 2025, 8:52 p.m. UTC

TLE line 0: 0 COSMOS 1344

TLE line 1: 1 13110U 82024A 25187.86978539 .00000036 00000-0 22562-4 0 9990

TLE line 2: 2 13110 82.9235 314.6561 0027541 225.2936 254.0848 13.74198481170321

Live tracking on map

Real-time ground track for satellite COSMOS 1344.

In-orbit conjunctions

A list of the most updated potential collisions computed for object COSMOS 1344.

Target Orbit TCA Probability of collision Miss distance Type
SL-8 R/B LEO 2025-01-18 14:57:45 0.0001614604 48.0 (m) ROCKET BODY
FENGYUN 1C DEB SSO 2024-12-31 04:39:28 0.0001143766 686.0 (m) DEBRIS
CZ-6A DEB SSO 2024-11-19 21:43:34 0.0003253804 171.0 (m) DEBRIS
THORAD AGENA D DEB SSO 2024-08-21 14:58:39 0.0004936836 438.0 (m) DEBRIS

Associated space launch

Molniya communication satellites operating from a highly elliptical orbit

COSMOS 1344 was lifted into orbit during the mission ‘Molniya-M | Molniya-3 29L’, on board a Molniya-M space rocket.

The launch took place on March 24, 1982, 12:12 a.m. from 41/1.

For more information about the launch, click the button.

Launch to space Molniya-M | Molniya-3 29L
Molniya-M | Molniya-3 29L

Agency: N/A

Status: Launch Successful

Launch date: March 24, 1982, 12:12 a.m. UTC

Rocket: Molniya-M

Launch pad: 41/1

Location: Plesetsk Cosmodrome, Russian Federation

...

Latest news about this satellite

There are no fresh news available about this satellite. Check back as we update our databases every day.


Newsletter sign-up

Weekly statistics, charts and insights to help you stay on top of the space industry.